Wind_Speed
42 41 40 39 38 37 35 34 33 28 23 20 20 18 17 14 12 11 16 25 34 40 42 43 41 39 35 34 31 29 29 24 13 12 27 16 14 14 16 20 27 31 33 33 31
45 45 44 43 42 41 40 39 37 34 30 25 23 23 23 22 20 16 17 17 23 31 38 42 44 43 41 41 38 33 33 27 27 28 21 14 14 16 19 24 29 29 33 28 29
48 49 49 48 47 46 45 44 42 39 37 32 29 27 29 28 26 25 22 20 21 23 28 35 41 42 44 43 42 40 39 30 15 40 45 40 36 31 29 37 34 28 28 25 23
52 53 54 53 52 51 50 49 47 45 42 39 36 34 33 33 30 34 30 27 26 25 24 26 29 33 39 42 43 44 46 47 45 33 38 40 40 45 44 44 42 30 30 27 23
55 56 56 56 56 56 55 53 52 51 48 46 42 40 40 38 33 38 35 35 33 30 28 27 28 26 27 27 33 38 42 47 50 54 54 53 52 50 46 46 41 30 35 29 22
58 58 59 60 59 59 59 58 57 56 54 51 48 46 45 43 37 41 42 41 41 38 36 34 31 26 24 26 27 23 23 23 40 51 54 50 51 50 48 43 34 32 30 19 15
60 61 62 62 63 63 63 62 61 60 58 56 53 51 53 46 43 48 44 46 46 45 44 41 34 32 30 29 27 24 20 19 21 33 41 44 47 33 24 23 18 16 15 15 17
64 64 65 66 66 66 67 66 65 64 62 60 57 56 60 53 50 53 47 46 50 50 49 47 42 39 35 33 25 22 23 22 18 16 23 26 32 23 22 17 10 7 4 8 14
69 70 71 72 72 72 72 70 69 68 66 64 62 60 64 61 55 53 55 52 52 54 54 51 48 47 41 38 33 25 30 27 22 20 20 22 30 33 25 16 12 7 1 6 11
76 78 80 81 80 81 80 79 77 75 76 72 68 65 65 68 64 61 62 59 57 56 54 54 51 50 45 41 38 40 36 31 27 26 23 22 24 27 20 18 14 11 8 8 11
80 82 84 86 86 87 89 89 88 84 87 81 77 74 74 74 70 66 65 65 60 58 58 58 56 49 56 52 52 47 40 35 31 28 28 28 23 19 23 20 16 15 15 14 17
85 87 90 91 92 92 94 94 92 90 94 94 88 83 85 75 73 75 70 67 67 63 66 59 51 61 61 56 53 48 44 40 35 31 32 29 28 22 26 22 21 15 27 9 16
84 87 91 96 98 100 100 100 98 97 96 100 95 92 92 89 81 86 80 77 72 71 66 64 66 68 65 62 55 50 46 47 45 42 38 36 30 27 28 25 22 15 21 15 14
84 92 94 99 98 98 99 99 99 101 100 100 101 99 96 94 93 97 92 85 77 73 71 69 72 69 66 62 56 51 53 52 52 48 43 42 35 30 30 27 23 17 22 19 15
78 84 91 90 93 94 98 98 98 96 96 94 101 106 103 97 96 101 100 95 86 82 78 65 73 72 67 62 62 60 58 55 58 53 54 45 36 33 31 28 30 27 32 29 26
72 77 88 91 94 97 95 93 91 86 85 86 92 97 102 104 102 105 102 96 94 88 81 79 83 78 71 75 68 70 65 63 63 57 52 45 38 38 34 35 42 36 33 30 31
69 75 84 90 93 94 94 95 94 90 87 85 85 90 97 99 104 109 106 100 99 95 84 83 82 77 77 77 72 72 68 65 63 55 44 47 40 40 43 44 43 41 37 32 32
70 76 82 83 82 81 78 77 80 80 79 77 79 86 94 95 103 103 106 106 102 99 99 92 90 81 81 79 76 73 69 62 58 55 51 51 41 51 52 48 45 43 42 39 35
76 75 76 68 68 67 68 69 72 72 70 70 71 71 80 96 99 102 102 110 109 106 99 97 91 92 87 83 81 77 66 68 65 61 56 49 53 57 56 50 44 39 39 41 39
82 76 68 60 56 55 55 60 64 65 65 63 61 66 75 89 95 103 103 106 110 112 103 99 95 93 91 91 87 73 74 70 63 62 55 52 56 56 57 50 45 39 33 41 43
81 72 62 54 50 49 49 52 56 59 57 56 55 56 67 78 89 103 105 103 108 109 105 103 95 90 99 95 82 80 75 72 73 67 58 59 58 64 54 49 43 38 35 37 53
80 69 56 51 51 49 44 44 44 46 48 50 51 48 57 72 88 97 107 106 107 106 107 107 97 102 92 80 86 88 83 80 71 61 58 62 64 58 49 46 43 39 35 38 51
76 68 54 52 50 48 46 43 38 38 37 40 45 44 48 67 81 90 102 104 105 104 106 108 103 102 91 92 94 90 79 74 71 71 65 65 62 55 52 50 48 44 39 42 47
70 59 56 48 45 44 43 42 40 30 33 34 36 41 43 59 71 81 95 101 105 105 104 104 100 101 95 90 85 78 76 71 70 69 67 62 66 55 53 52 50 48 45 42 48
63 54 48 47 45 41 39 38 35 30 27 30 30 37 38 54 65 78 88 99 103 105 105 97 98 103 96 90 85 78 74 73 68 65 64 69 65 58 58 54 50 52 48 42 45
52 46 44 42 40 40 38 35 31 29 25 23 28 31 36 49 60 72 83 95 99 104 102 95 98 95 92 92 87 80 76 70 67 67 71 73 66 61 59 56 53 55 50 46 44
43 40 37 37 38 38 37 34 32 26 20 19 23 27 32 44 55 68 77 89 97 99 100 98 93 90 95 95 90 85 82 75 71 75 76 76 69 63 63 58 55 55 49 43 42
Wind_Direction
255 258 262 263 262 263 262 262 263 259 256 253 250 241 233 217 215 203 211 215 219 222 221 222 222 223 220 220 223 228 231 229 207 209 165 155 189 232 272 272 292 307 308 310 311
258 261 263 262 263 262 262 261 261 261 258 252 249 248 240 232 222 216 216 213 217 223 227 226 225 225 221 221 220 227 231 232 230 215 183 197 207 239 248 278 303 314 315 303 306
260 260 261 262 262 262 261 260 261 259 258 256 253 248 243 236 231 222 227 214 212 220 223 226 228 227 228 225 224 227 229 217 225 204 208 224 233 224 258 286 291 311 310 315 311
261 260 261 262 262 260 260 260 260 260 259 256 256 252 247 238 235 235 228 227 221 214 218 218 223 228 232 234 234 231 232 228 221 213 215 225 232 254 269 278 286 296 296 310 308
262 262 262 262 262 262 260 260 261 261 261 260 255 252 251 245 244 237 232 233 229 223 218 220 215 212 218 225 228 228 233 234 234 238 244 253 258 265 273 281 287 277 280 296 302
264 264 263 263 262 261 260 258 258 259 259 258 259 257 251 243 245 238 240 235 234 230 226 227 219 217 214 219 228 223 230 236 236 238 242 252 258 262 268 274 260 270 285 291 308
266 266 265 264 263 262 260 259 258 257 257 256 255 255 255 245 242 244 236 238 238 234 233 231 229 226 220 222 224 230 233 241 243 237 234 240 250 251 263 264 261 277 280 321 328
266 265 264 263 262 261 260 259 258 257 256 255 254 252 253 248 244 243 236 242 240 237 234 233 230 233 234 230 226 235 234 234 238 242 232 230 230 233 255 249 260 269 322 351 341
267 266 265 264 262 261 259 258 257 256 254 252 251 250 251 250 245 247 245 234 239 238 237 235 233 233 235 236 231 230 239 230 232 232 233 230 228 234 256 242 254 258 251 358 9
269 268 266 265 263 262 260 259 257 256 254 252 248 247 247 249 246 243 244 236 235 235 234 238 235 234 232 234 232 225 232 236 231 230 224 228 226 237 240 246 259 231 232 298 341
270 268 267 266 265 264 263 261 259 257 256 252 250 248 246 246 246 245 244 243 237 239 236 233 235 235 231 228 232 233 231 237 239 239 241 230 235 234 242 250 248 248 224 268 284
270 268 267 266 265 264 262 261 259 257 258 254 251 249 249 245 247 247 243 242 242 234 236 233 231 232 232 232 232 234 236 234 237 242 244 239 237 234 248 253 255 237 233 248 270
276 274 272 270 268 265 264 261 259 258 255 258 254 248 248 247 242 244 240 238 237 237 233 230 227 231 231 232 233 231 233 236 232 231 238 241 238 236 242 249 258 246 199 213 251
279 278 275 274 271 270 268 266 262 259 255 254 254 253 246 245 244 243 242 238 235 235 233 229 231 233 231 232 233 234 231 233 237 235 240 241 239 238 240 250 257 219 216 210 232
280 279 279 278 278 275 271 269 267 263 259 254 251 250 250 245 241 242 240 242 241 236 233 229 231 232 229 230 229 229 230 232 235 234 238 243 244 244 243 247 246 240 207 204 238
286 285 281 279 278 279 279 278 276 269 262 254 251 248 246 243 240 240 241 240 237 237 237 232 230 227 227 229 226 229 229 232 235 234 237 244 245 240 236 230 242 243 249 250 256
298 291 287 283 282 282 279 277 275 272 265 260 253 244 240 238 237 236 236 234 235 232 231 235 237 231 230 233 229 233 232 233 235 236 240 239 236 241 233 230 235 245 250 249 248
305 301 295 292 288 285 282 277 273 269 264 257 247 238 232 231 233 231 231 232 231 231 227 223 226 231 230 231 231 230 232 233 232 232 228 230 231 237 235 234 233 240 250 252 247
314 312 305 298 292 285 281 277 272 269 264 259 251 237 233 227 228 229 226 228 227 229 226 224 221 225 226 228 228 228 228 227 228 230 229 235 235 239 243 243 243 241 250 250 239
321 317 310 303 295 288 283 278 275 272 268 262 253 240 231 224 219 224 223 222 225 225 225 224 221 223 225 225 225 225 224 226 229 231 230 234 237 240 243 243 241 244 235 235 233
325 320 315 308 301 294 289 281 279 276 271 264 254 240 231 224 219 218 220 219 220 222 221 224 220 222 225 225 225 227 228 228 228 226 225 230 234 236 240 240 240 234 228 224 222
326 321 319 313 306 300 297 286 282 279 271 263 257 238 227 223 219 215 216 217 217 217 218 219 217 222 224 225 225 225 223 224 226 228 228 231 231 236 239 240 240 233 226 221 225
326 323 323 316 310 310 306 298 289 282 272 258 251 240 221 219 220 216 216 214 215 212 214 215 214 219 217 220 223 223 226 226 225 225 224 227 232 234 232 232 231 232 218 222 225
327 323 322 320 318 316 311 305 301 288 277 265 246 240 224 217 216 215 214 212 212 210 210 213 212 217 217 220 222 223 224 225 227 229 229 229 232 230 226 227 227 231 228 218 223
328 327 328 328 326 321 316 310 305 298 282 266 247 238 223 217 214 212 211 210 210 208 208 207 210 213 215 218 220 220 222 222 222 227 227 227 228 225 222 221 225 230 230 221 226
330 331 329 330 333 335 331 325 312 303 289 264 248 235 222 213 209 211 209 210 209 206 205 202 208 209 211 215 217 218 219 222 220 219 222 226 226 220 223 224 226 229 227 222 220
334 336 339 343 345 343 342 336 327 314 297 269 242 231 218 209 205 207 208 208 207 205 201 199 203 204 209 212 213 214 215 215 216 217 220 222 223 221 224 225 225 226 225 223 221
Height
10956 10957 10959 10959 10960 10961 10962 10962 10963 10965 10967 10968 10968 10969 10970 10971 10972 10972 10972 10973 10973 10975 10977 10981 10985 10988 10992 10995 10997 10999 11001 11004 11011 11007 11000 11001 11002 11004 11002 11001 11003 11000 10996 10994 10991
10950 10951 10951 10952 10954 10955 10955 10956 10957 10959 10961 10963 10964 10964 10965 10966 10968 10970 10969 10969 10969 10970 10971 10974 10978 10981 10986 10987 10992 10993 10996 11000 11001 11007 11005 10994 10998 10997 10999 10997 10998 10996 10992 10989 10987
10941 10941 10942 10943 10944 10945 10947 10947 10949 10951 10953 10956 10958 10959 10959 10960 10963 10964 10964 10965 10965 10966 10966 10968 10971 10974 10978 10981 10986 10991 10991 10996 10996 10999 10998 10992 10991 10993 10993 10993 10993 10993 10992 10988 10985
10930 10930 10930 10931 10933 10935 10936 10938 10940 10942 10944 10947 10949 10950 10952 10953 10957 10955 10959 10960 10961 10962 10962 10963 10965 10968 10970 10974 10978 10983 10984 10989 10992 10992 10991 10990 10988 10990 10991 10992 10992 10992 10990 10987 10984
10918 10919 10919 10920 10921 10923 10925 10928 10930 10932 10935 10937 10940 10941 10941 10944 10949 10948 10953 10952 10954 10956 10958 10958 10959 10962 10964 10966 10969 10974 10979 10982 10985 10984 10985 10985 10986 10987 10988 10988 10988 10989 10988 10986 10983
10906 10905 10905 10905 10907 10909 10910 10913 10916 10919 10921 10926 10928 10930 10929 10933 10940 10940 10940 10944 10945 10948 10951 10952 10955 10960 10962 10963 10963 10971 10972 10974 10974 10977 10979 10980 10980 10983 10984 10985 10986 10986 10986 10984 10980
10892 10891 10891 10890 10891 10893 10895 10898 10901 10905 10907 10911 10916 10918 10915 10923 10928 10923 10932 10934 10935 10939 10941 10945 10950 10952 10954 10957 10960 10964 10967 10966 10966 10966 10973 10977 10976 10980 10981 10982 10984 10984 10985 10982 10977
10876 10875 10873 10873 10874 10875 10876 10880 10884 10887 10892 10896 10902 10904 10896 10908 10912 10911 10923 10924 10924 10928 10932 10936 10942 10945 10947 10950 10957 10957 10958 10960 10963 10964 10967 10971 10971 10976 10978 10980 10982 10982 10980 10979 10977
10858 10857 10856 10856 10855 10856 10857 10861 10865 10868 10871 10878 10882 10887 10882 10890 10899 10902 10902 10910 10912 10915 10920 10926 10933 10935 10942 10944 10949 10951 10948 10954 10957 10960 10963 10966 10969 10972 10975 10975 10977 10978 10978 10976 10975
10840 10836 10835 10833 10834 10833 10836 10839 10846 10848 10846 10855 10862 10868 10870 10869 10880 10887 10885 10893 10896 10903 10912 10914 10920 10926 10933 10936 10935 10939 10941 10946 10951 10955 10960 10963 10967 10969 10970 10970 10972 10972 10974 10974 10974
10817 10813 10810 10808 10809 10810 10811 10815 10820 10828 10817 10835 10841 10847 10847 10853 10863 10870 10873 10876 10887 10893 10896 10900 10911 10917 10910 10920 10924 10931 10938 10941 10943 10948 10951 10958 10963 10967 10963 10967 10967 10966 10968 10971 10971
10793 10788 10782 10782 10781 10783 10782 10784 10792 10800 10794 10803 10817 10826 10821 10844 10846 10847 10857 10861 10865 10875 10875 10893 10903 10887 10898 10910 10917 10924 10929 10933 10937 10939 10940 10948 10955 10963 10960 10964 10964 10967 10966 10967 10967
10766 10761 10755 10751 10750 10749 10751 10753 10761 10767 10773 10767 10784 10798 10799 10813 10824 10812 10827 10836 10845 10849 10866 10875 10868 10878 10890 10898 10907 10914 10920 10918 10922 10929 10931 10938 10949 10956 10955 10958 10960 10963 10965 10966 10966
10742 10733 10731 10717 10720 10714 10714 10717 10723 10730 10739 10746 10746 10756 10770 10787 10797 10783 10794 10809 10826 10837 10843 10855 10854 10869 10879 10890 10896 10904 10900 10906 10911 10921 10924 10928 10941 10949 10952 10952 10955 10957 10957 10963 10965
10720 10710 10694 10693 10683 10678 10676 10680 10685 10692 10696 10709 10715 10720 10732 10752 10766 10758 10769 10790 10812 10817 10824 10852 10842 10852 10866 10875 10878 10881 10888 10895 10897 10911 10911 10923 10934 10940 10946 10949 10949 10951 10956 10957 10961
10697 10681 10665 10662 10652 10645 10644 10641 10640 10646 10651 10664 10669 10683 10688 10710 10727 10728 10744 10770 10780 10797 10815 10820 10815 10834 10851 10848 10864 10859 10875 10882 10886 10899 10908 10915 10924 10932 10940 10940 10938 10946 10948 10953 10955
10672 10652 10635 10625 10618 10613 10607 10603 10600 10599 10605 10614 10626 10636 10646 10666 10679 10692 10713 10735 10744 10765 10793 10801 10812 10826 10832 10835 10848 10850 10863 10873 10880 10893 10906 10900 10914 10918 10924 10930 10935 10937 10942 10948 10951
10645 10629 10605 10596 10586 10574 10567 10566 10562 10561 10564 10566 10577 10590 10606 10628 10635 10656 10678 10698 10718 10730 10746 10763 10771 10799 10815 10819 10828 10835 10848 10864 10871 10880 10883 10885 10908 10898 10905 10918 10928 10933 10935 10942 10944
10616 10600 10576 10569 10555 10546 10537 10533 10527 10528 10530 10536 10541 10560 10572 10585 10606 10621 10643 10658 10680 10697 10721 10742 10764 10770 10782 10796 10806 10816 10842 10844 10854 10864 10869 10886 10887 10889 10894 10907 10921 10930 10933 10932 10936
10591 10573 10553 10541 10530 10521 10515 10506 10502 10500 10501 10507 10514 10521 10530 10552 10568 10582 10603 10626 10642 10664 10698 10716 10741 10754 10769 10772 10788 10818 10820 10833 10851 10859 10871 10873 10874 10882 10886 10900 10910 10917 10924 10922 10925
10566 10548 10534 10520 10511 10502 10495 10487 10481 10476 10478 10481 10484 10493 10506 10518 10535 10548 10570 10598 10616 10639 10676 10691 10724 10742 10733 10755 10791 10799 10814 10826 10828 10841 10857 10858 10865 10861 10877 10887 10899 10909 10913 10916 10914
10543 10526 10518 10504 10492 10483 10476 10469 10465 10458 10455 10456 10459 10470 10480 10492 10498 10519 10538 10563 10587 10615 10644 10665 10703 10701 10732 10768 10770 10774 10789 10799 10819 10838 10847 10846 10848 10859 10873 10879 10889 10898 10906 10908 10906
10527 10507 10502 10492 10477 10465 10457 10450 10447 10441 10438 10437 10440 10448 10458 10464 10475 10496 10517 10542 10564 10592 10616 10642 10675 10686 10722 10726 10733 10756 10787 10803 10814 10817 10829 10832 10841 10855 10861 10867 10875 10882 10893 10898 10897
10515 10501 10486 10476 10465 10455 10443 10434 10427 10426 10420 10420 10425 10428 10439 10446 10460 10477 10496 10522 10540 10569 10595 10625 10662 10673 10700 10718 10735 10758 10776 10789 10801 10812 10820 10830 10827 10844 10850 10856 10863 10868 10875 10888 10889
10501 10490 10479 10465 10453 10446 10437 10425 10416 10411 10408 10408 10411 10412 10423 10430 10445 10459 10475 10498 10522 10550 10577 10618 10643 10655 10683 10707 10724 10746 10761 10774 10789 10803 10813 10807 10818 10833 10835 10843 10850 10853 10865 10878 10880
10494 10482 10469 10459 10446 10434 10424 10416 10408 10401 10398 10397 10398 10402 10409 10418 10433 10444 10460 10477 10505 10530 10566 10601 10617 10650 10676 10689 10710 10731 10749 10764 10776 10785 10791 10790 10806 10818 10822 10830 10839 10841 10855 10867 10874
10487 10475 10465 10454 10442 10431 10419 10409 10400 10393 10389 10387 10389 10393 10399 10408 10421 10432 10450 10468 10486 10518 10553 10581 10611 10637 10652 10666 10689 10709 10723 10742 10759 10761 10761 10772 10788 10806 10809 10817 10826 10832 10845 10860 10869